User: anonymous
Location: Caltech
(34.1382°N, 118.1253°W)
Time: 15:32:07
(UTC-07:00)
Language:

Iridium 21 - Orbit

View from above orbital plane
View from above orbital plane
View from above satellite
View from above satellite

Ground track
Ground track

The orbit data is extracted from the following two-line orbital elements,

1 25778U 99032B   14209.37113959  .00000268  00000-0  88551-4 0  8183
2 25778 086.3982 304.8675 0002097 108.1286 319.2500 14.34217057796921
Epoch (UTC): 28 July 2014 08:54:26
Eccentricity: 0.0002097
inclination: 86.3982°
perigee height: 776 km
apogee height: 779 km
right ascension of ascending node: 304.8675°
argument of perigee: 108.1286°
revolutions per day: 14.34217057
mean anomaly at epoch: 319.2500°
orbit number at epoch: 79692

The dashed part of the orbit path shows where the satellite is in the earth's shadow,  

DLR